sat.trackr.live / text

‹ back to catalog

CMS-01

NORAD 47256 · 2020-099A

PAYLOAD ACTIVE UNKNOWN

§ Identity

Operator
Country
IND
Launch date
2020-12-17
Launch site
SRILR
Launch vehicle
Mass (kg)
RCS (m²)

Purposes: comms

External: N2YO · Heavens-Above · Gunter

§ Orbital elements

Epoch: 2026-09-12T03:22:21.728064Z

Period
1,436.08 min
Inclination
0.0366°
Eccentricity
0.0004852
Mean motion
1.00272621 rev/d
Perigee alt
35,765.9 km
Apogee alt
35,806.8 km
Semi-major
42,164.5 km
B*
0.0000e+0
RAAN
100.2110°
Arg perigee
154.6600°
Mean anomaly
229.8605°
Rev number
2,107

§ Raw data

CMS-011 47256U 20099A   26255.14052926 -.00000180  00000+0  00000+0 0  99912 47256   0.0366 100.2110 0004852 154.6600 229.8605  1.00272621 21070

JSON: /api/v1/satellites/47256 · /tle

For live sub-satellite position, see the globe view (requires WebGL).

§ Visibility from observer

Set your observer location to see the next 7 days of passes ≥ 10°. The values pass through the URL so the page stays shareable.

No JS? Fill the form by hand. The geolocation button needs JavaScript.